Weather History for Cherokee, IA

Change the Weather History Date:

Sunday, February 16, 2014

  Actual Average Record
Temperature  
Mean Temperature 16 °F -  
Max Temperature 28 °F 29 °F 55 °F (1954)
Min Temperature 5 °F 8 °F -27 °F (1958)
Degree Days  
Heating Degree Days 48    
Moisture  
Dew Point 15 °F    
Average Humidity 83    
Maximum Humidity 92    
Minimum Humidity 73    
Precipitation  
Precipitation 0.00 in - - ()
Sea Level Pressure  
Sea Level Pressure 30.05 in    
Wind  
Wind Speed 9 mph (ESE)    
Max Wind Speed 18 mph    
Max Gust Speed 25 mph    
Visibility 9 miles    
Events Snow    
Averages and records for this station are not official NWS values.
T = Trace of Precipitation, MM = Missing Value Source: NWS Daily Summary

Daily Weather History Graph

Daily Weather History Graph

Search for Another Location

Airport:

Trip Planner

Search our weather history database for the weather conditions in past years. The results will help you decide how hot, cold, wet, or windy it might be!

Date:

Astronomy

Feb. 16, 2014 Rise Set
Actual Time 7:17 AM CST 5:55 PM CST
Civil Twilight 6:48 AM CST 6:24 PM CST
Nautical Twilight 6:15 AM CST 6:57 PM CST
Astronomical Twilight 5:43 AM CST 7:30 PM CST
Moon 7:57 PM CST (2/16) 7:44 AM CST (2/16)
Length of Visible Light 11h 35m
Length of Day
10h 37m
Full, 97% of the Moon is Illuminated
Feb 16
Full
Feb 22
Last Quarter
Mar 1
New
Mar 8
First Quarter
Mar 16
Full

Hourly Weather History & Observations

Time (CST) Temp. Windchill Dew Point Humidity Pressure Visibility Wind Dir Wind Speed Gust Speed Precip Events Conditions
12:15 AM 19.4 °F 7.9 °F 15.8 °F 86% 30.07 in 10.0 mi North 10.4 mph - N/A   Overcast
12:35 AM 18.5 °F 7.5 °F 14.9 °F 86% 30.08 in 10.0 mi North 9.2 mph - N/A   Overcast
12:55 AM 18.3 °F 8.2 °F 14.7 °F 86% 30.10 in 10.0 mi North 8.1 mph - N/A   Overcast
1:15 AM 18.0 °F 6.9 °F 14.0 °F 84% 30.09 in 10.0 mi North 9.2 mph 16.1 mph N/A   Overcast
1:35 AM 17.6 °F 7.3 °F 13.6 °F 84% 30.10 in 10.0 mi North 8.1 mph - N/A   Overcast
1:55 AM 17.4 °F 7.1 °F 13.5 °F 84% 30.11 in 10.0 mi NNE 8.1 mph - N/A   Overcast
2:15 AM 17.4 °F 7.1 °F 13.5 °F 84% 30.10 in 10.0 mi North 8.1 mph - N/A   Overcast
2:35 AM 16.9 °F 5.5 °F 12.7 °F 84% 30.11 in 10.0 mi North 9.2 mph - N/A Snow Light Snow
2:55 AM 16.2 °F 5.5 °F 12.0 °F 84% 30.12 in 7.0 mi NNW 8.1 mph - N/A Snow Light Snow
3:15 AM 14.9 °F 5.0 °F 10.9 °F 84% 30.13 in 7.0 mi North 6.9 mph - N/A Snow Light Snow
3:35 AM 14.0 °F 2.9 °F 10.2 °F 85% 30.13 in 10.0 mi North 8.1 mph - N/A   Overcast
3:55 AM 12.7 °F 1.4 °F 8.2 °F 82% 30.12 in 10.0 mi North 8.1 mph - N/A   Overcast
4:15 AM 10.9 °F 1.4 °F 6.6 °F 83% 30.14 in 10.0 mi NW 5.8 mph - N/A   Scattered Clouds
4:35 AM 9.9 °F 0.2 °F 5.7 °F 83% 30.14 in 10.0 mi NNW 5.8 mph - N/A   Clear
4:55 AM 9.1 °F 2.6 °F 5.5 °F 85% 30.14 in 7.0 mi NNW 3.5 mph - N/A Snow Light Snow
5:15 AM 8.6 °F - 5.4 °F 87% 30.15 in 10.0 mi Calm Calm - N/A   Clear
5:35 AM 8.1 °F - 5.0 °F 87% 30.16 in 10.0 mi Calm Calm - N/A   Clear
5:55 AM 7.3 °F - 4.5 °F 88% 30.16 in 10.0 mi Calm Calm - N/A   Clear
6:15 AM 6.8 °F - 3.9 °F 88% 30.16 in 10.0 mi Calm Calm - N/A   Clear
6:35 AM 6.4 °F - 3.6 °F 88% 30.17 in 10.0 mi Calm Calm - N/A   Clear
6:55 AM 5.9 °F - 3.2 °F 89% 30.18 in 7.0 mi Calm Calm - N/A   Clear
7:15 AM 5.5 °F - 3.0 °F 89% 30.16 in 5.0 mi Calm Calm - N/A   Clear
7:35 AM 6.3 °F -2.6 °F 3.9 °F 90% 30.16 in 10.0 mi NE 4.6 mph - N/A   Clear
7:55 AM 7.3 °F 0.5 °F 4.8 °F 89% 30.16 in 7.0 mi NNE 3.5 mph - N/A   Clear
8:15 AM 8.8 °F 0.4 °F 6.6 °F 91% 30.16 in 7.0 mi NNE 4.6 mph - N/A   Mostly Cloudy
8:35 AM 11.1 °F - 9.0 °F 91% 30.17 in 5.0 mi Calm Calm - N/A Snow Light Snow
8:55 AM 13.3 °F 7.3 °F 11.1 °F 91% 30.17 in 7.0 mi NE 3.5 mph - N/A Snow Light Snow
9:15 AM 14.4 °F 5.5 °F 12.2 °F 91% 30.16 in 5.0 mi ENE 5.8 mph - N/A Snow Light Snow
9:35 AM 15.8 °F 7.2 °F 13.6 °F 91% 30.15 in 7.0 mi East 5.8 mph - N/A   Overcast
9:55 AM 16.7 °F 6.2 °F 14.7 °F 92% 30.14 in 7.0 mi East 8.1 mph - N/A   Overcast
10:15 AM 17.4 °F 7.1 °F 15.4 °F 92% 30.14 in 7.0 mi East 8.1 mph - N/A   Overcast
10:35 AM 18.1 °F 6.3 °F 15.8 °F 91% 30.14 in 7.0 mi SE 10.4 mph - N/A   Overcast
10:55 AM 18.5 °F 6.8 °F 15.8 °F 89% 30.14 in 7.0 mi SE 10.4 mph - N/A   Overcast
11:15 AM 19.0 °F 6.8 °F 16.2 °F 89% 30.14 in 10.0 mi SE 11.5 mph - N/A   Overcast
11:35 AM 19.6 °F 7.4 °F 16.7 °F 89% 30.13 in 7.0 mi SE 11.5 mph - N/A   Overcast
11:55 AM 20.3 °F 8.3 °F 17.1 °F 87% 30.12 in 10.0 mi SE 11.5 mph - N/A   Overcast
12:15 PM 21.0 °F 8.6 °F 17.6 °F 87% 30.10 in 10.0 mi SE 12.7 mph - N/A   Overcast
12:35 PM 21.6 °F 8.8 °F 17.6 °F 85% 30.09 in 10.0 mi SE 13.8 mph - N/A   Overcast
12:55 PM 22.5 °F 11.7 °F 18.3 °F 84% 30.08 in 10.0 mi SE 10.4 mph 18.4 mph N/A   Overcast
1:15 PM 23.5 °F 10.8 °F 18.5 °F 81% 30.06 in 10.0 mi SE 15.0 mph 19.6 mph N/A   Overcast
1:35 PM 24.8 °F 12.9 °F 19.2 °F 79% 30.05 in 7.0 mi SE 13.8 mph 21.9 mph N/A   Overcast
1:55 PM 25.7 °F 14.0 °F 19.4 °F 77% 30.05 in 10.0 mi SSE 13.8 mph 18.4 mph N/A   Overcast
2:15 PM 25.3 °F 12.6 °F 19.0 °F 77% 30.03 in 10.0 mi SSE 16.1 mph - N/A   Overcast
2:35 PM 26.1 °F 14.0 °F 19.4 °F 76% 30.02 in 10.0 mi SSE 15.0 mph 20.7 mph N/A   Mostly Cloudy
2:55 PM 27.0 °F 15.6 °F 19.8 °F 74% 30.00 in 10.0 mi SSE 13.8 mph 21.9 mph N/A   Scattered Clouds
3:15 PM 28.0 °F 16.5 °F 20.3 °F 73% 30.00 in 10.0 mi SSE 15.0 mph 20.7 mph N/A   Clear
3:35 PM 27.9 °F 15.9 °F 20.1 °F 73% 29.99 in 10.0 mi SE 16.1 mph 21.9 mph N/A   Clear
3:55 PM 27.7 °F 15.2 °F 20.3 °F 74% 29.98 in 10.0 mi SE 17.3 mph 21.9 mph N/A   Clear
4:15 PM 27.5 °F 15.0 °F 20.3 °F 74% 29.98 in 10.0 mi SE 17.3 mph 25.3 mph N/A   Clear
4:35 PM 27.3 °F 14.8 °F 20.3 °F 75% 29.96 in 10.0 mi SE 17.3 mph 21.9 mph N/A   Clear
4:55 PM 26.6 °F 15.2 °F 19.9 °F 76% 29.95 in 10.0 mi SE 13.8 mph 21.9 mph N/A   Clear
5:15 PM 25.9 °F 12.9 °F 19.4 °F 76% 29.96 in 10.0 mi SE 17.3 mph 21.9 mph N/A   Clear
5:35 PM 25.7 °F 12.3 °F 19.4 °F 77% 29.96 in 10.0 mi SE 18.4 mph 24.2 mph N/A   Clear
5:55 PM 25.5 °F 13.8 °F 19.4 °F 78% 29.95 in 10.0 mi SE 13.8 mph 20.7 mph N/A   Clear
6:15 PM 25.3 °F 14.7 °F 19.4 °F 78% 29.95 in 10.0 mi SE 11.5 mph - N/A   Clear
6:35 PM 25.3 °F 14.7 °F 19.8 °F 79% 29.95 in 10.0 mi SE 11.5 mph - N/A   Clear
6:55 PM 25.2 °F 13.3 °F 19.6 °F 79% 29.95 in 10.0 mi SE 13.8 mph - N/A   Clear
7:15 PM 24.8 °F 15.3 °F 19.0 °F 79% 29.94 in 10.0 mi SSE 9.2 mph 19.6 mph N/A   Clear
7:35 PM 24.6 °F 12.7 °F 18.9 °F 79% 29.94 in 10.0 mi SSE 13.8 mph 19.6 mph N/A   Clear
7:55 PM 24.4 °F 14.9 °F 18.7 °F 79% 29.94 in 10.0 mi SE 9.2 mph - N/A   Clear
8:15 PM 23.9 °F 12.3 °F 18.9 °F 81% 29.92 in 10.0 mi SSE 12.7 mph - N/A   Clear
8:35 PM 23.5 °F 12.4 °F 18.9 °F 82% 29.93 in 10.0 mi SSE 11.5 mph 17.3 mph N/A   Clear
8:55 PM 23.7 °F 12.6 °F 19.0 °F 82% 29.91 in 10.0 mi SSE 11.5 mph 17.3 mph N/A   Scattered Clouds
9:15 PM 23.7 °F 14.0 °F 19.0 °F 82% 29.91 in 10.0 mi SSE 9.2 mph - N/A   Scattered Clouds
9:35 PM 23.9 °F 11.7 °F 19.2 °F 82% 29.89 in 10.0 mi SSE 13.8 mph 19.6 mph N/A   Scattered Clouds
9:55 PM 24.3 °F 12.7 °F 19.4 °F 82% 29.89 in 10.0 mi SSE 12.7 mph 20.7 mph N/A   Mostly Cloudy
10:15 PM 24.1 °F 10.1 °F 19.4 °F 82% 29.88 in 10.0 mi SSE 18.4 mph 23.0 mph N/A   Mostly Cloudy
10:35 PM 23.9 °F 11.7 °F 19.4 °F 83% 29.87 in 10.0 mi SSE 13.8 mph 21.9 mph N/A   Mostly Cloudy
10:55 PM 23.9 °F 11.2 °F 19.9 °F 85% 29.86 in 10.0 mi SSE 15.0 mph 25.3 mph N/A   Scattered Clouds
11:15 PM 24.1 °F 10.1 °F 20.3 °F 85% 29.86 in 10.0 mi SSE 18.4 mph 24.2 mph N/A   Scattered Clouds
11:35 PM 24.3 °F 11.2 °F 20.3 °F 85% 29.87 in 10.0 mi SSE 16.1 mph 19.6 mph N/A   Clear
11:55 PM 24.4 °F 12.4 °F 20.8 °F 86% 29.89 in 10.0 mi SSE 13.8 mph 19.6 mph N/A   Scattered Clouds